{"data":{"norad_id":66412,"epoch":"2026-09-20T10:59:08.697984Z","epoch_age_seconds":131628,"freshness":"FRESH","line1":"1 66412U 25258A   26263.45773956 -.00000087  00000+0  78845-4 0  9997","line2":"2 66412  50.0055 313.9493 0000022 235.9419 124.1452 13.29330761 42409","mean_motion":13.29330761,"eccentricity":2.2e-6,"inclination_deg":50.0055,"raan_deg":313.9493,"arg_perigee_deg":235.9419,"mean_anomaly_deg":124.1452,"bstar":7.8845e-5,"rev_number":4240,"period_min":108.32518453998,"perigee_km":1149.2720384735,"apogee_km":1149.3051591462,"semimajor_km":7527.4255988099,"source":"CELESTRAK","updated_at":"2026-09-21T09:00:15.962590Z"}}